RH
4 4 6 14 23 29 46 54 64 68 50 28 44 62 80 80 73 75 83 99 94 53 91 78 99 81 11 14 30 20 13 18 24 58 90 90 86 81 77 70 63 62 70 81 59
5 4 7 19 29 40 52 61 68 51 21 37 67 90 87 90 84 84 78 79 94 88 98 87 90 98 22 11 27 28 14 12 18 56 83 90 88 84 74 58 61 61 68 54 33
5 5 8 21 30 37 51 54 63 38 26 55 82 73 92 80 88 74 97 90 91 98 100 100 98 99 42 10 20 31 22 11 13 38 70 70 66 59 51 60 54 59 66 44 26
6 6 12 24 30 37 52 59 64 41 38 32 42 66 81 86 94 90 100 100 97 96 100 100 99 88 49 11 15 28 26 15 12 21 47 35 39 42 58 56 60 46 24 18 26
7 6 15 31 37 42 54 70 70 91 30 38 43 50 58 73 100 100 100 100 100 100 73 99 99 100 51 15 14 24 29 26 14 14 33 30 36 54 62 50 45 21 14 20 35
8 8 17 38 41 52 70 72 73 91 47 31 34 35 47 46 83 100 100 99 99 100 91 86 74 82 46 19 13 20 30 34 22 14 24 38 47 56 59 44 30 18 11 22 37
7 10 21 38 42 49 65 84 52 44 40 24 31 40 46 40 100 100 98 98 100 100 100 99 44 70 45 20 16 18 29 37 26 16 21 40 51 58 52 38 22 14 10 22 30
8 11 24 37 46 46 64 56 34 21 20 21 32 32 34 60 97 95 96 96 100 95 90 98 69 52 38 27 19 24 30 37 27 18 26 45 58 58 50 30 16 9 9 22 24
8 12 23 35 41 43 51 35 26 23 29 36 33 38 41 69 79 94 94 88 95 90 96 100 96 50 45 38 35 26 27 34 26 19 34 55 51 58 44 23 10 9 13 17 17
9 12 23 34 46 49 55 49 28 33 48 64 51 30 32 58 71 100 75 100 94 83 100 100 87 62 50 47 31 25 31 34 26 29 43 60 52 44 36 14 8 11 15 17 16
10 10 19 33 52 49 60 80 53 50 57 74 36 46 88 68 73 94 67 68 100 100 100 100 80 62 55 47 30 33 35 30 28 45 58 58 52 32 17 9 12 13 16 19 19
11 10 16 32 47 56 46 64 63 64 76 92 95 84 66 63 80 99 100 100 75 88 99 96 70 53 46 40 37 36 32 33 41 49 56 52 29 18 10 9 14 15 18 20 21
19 11 14 28 39 57 47 46 69 70 80 92 84 86 90 84 97 100 97 100 87 96 96 78 49 39 36 33 31 31 31 35 36 48 44 28 16 9 10 12 16 19 21 22 23
42 15 12 21 30 46 50 41 44 58 83 84 75 87 88 91 96 99 99 100 88 86 70 42 38 33 32 32 30 28 29 30 33 32 26 19 11 8 12 16 20 21 22 22 22
65 33 12 14 29 32 54 46 42 48 69 82 82 76 78 74 69 90 81 83 85 66 40 40 38 33 32 32 30 30 27 25 24 21 18 13 10 9 8 11 15 16 16 15 14
69 59 20 12 19 31 36 58 44 49 59 78 92 85 82 73 70 68 71 58 55 45 44 43 41 38 36 34 33 32 29 26 21 18 15 12 10 10 10 9 8 8 9 9 9
60 64 53 18 12 26 33 43 50 44 52 58 59 58 56 48 46 44 43 45 43 42 41 42 40 37 36 35 32 30 28 25 22 18 14 12 11 11 10 10 11 11 11 11 10
38 44 58 55 19 14 23 31 50 50 46 46 45 43 43 43 42 40 39 37 37 36 37 37 34 32 30 30 28 27 25 23 21 19 17 16 14 13 13 13 12 12 13 12 12
33 32 32 52 58 26 15 16 31 52 53 46 46 46 41 37 37 41 41 39 39 38 35 32 28 24 24 21 20 20 18 18 16 15 15 14 13 13 12 13 13 13 14 15 14
36 34 32 33 40 64 35 15 14 33 35 52 49 39 40 32 34 34 37 41 41 42 38 32 30 24 20 17 17 16 16 16 15 14 14 14 14 14 14 17 18 17 15 14 14
40 41 36 34 31 33 50 61 24 14 16 29 35 39 43 42 37 31 30 31 39 30 33 34 27 23 20 18 18 17 16 15 15 15 14 14 15 16 22 23 20 16 15 15 16
50 47 44 38 38 36 31 30 33 66 49 13 13 16 26 30 29 31 37 34 26 39 39 34 27 24 23 21 21 22 22 22 28 32 28 23 15 18 17 16 15 14 13 11 8
47 45 42 35 39 42 37 35 32 33 37 53 72 55 14 13 12 14 19 24 27 26 26 28 31 32 28 27 26 29 31 34 32 27 20 17 15 12 10 7 6 6 5 5 5
48 50 49 40 38 41 41 40 41 40 37 37 38 38 50 74 74 54 29 13 10 10 10 10 12 15 16 16 18 18 19 18 16 14 11 9 7 7 7 6 4 4 4 5 5
60 50 48 51 44 38 35 36 35 35 36 39 39 38 37 36 35 34 35 47 62 64 56 39 15 9 8 7 7 7 7 7 7 7 5 7 6 17 6 7 16 34 40 45 53
55 59 51 52 49 42 41 37 35 31 29 32 30 29 31 36 36 32 30 32 27 28 28 28 32 51 62 57 53 45 36 36 41 51 55 57 62 54 58 54 54 49 40 36 34
55 53 53 55 55 52 44 40 36 34 34 31 28 29 27 26 27 29 31 29 34 30 28 24 21 19 21 24 26 28 35 35 32 32 33 29 29 26 27 24 26 27 28 29 29
Wind_Speed
43 47 54 54 52 52 45 34 24 14 14 11 10 11 14 14 12 12 14 22 31 32 44 52 45 57 81 82 80 79 75 73 69 62 55 47 41 36 32 28 25 24 23 22 21
44 48 54 51 51 47 37 27 20 14 13 7 4 2 5 8 9 12 12 17 33 49 29 50 41 49 74 78 78 77 75 72 67 59 54 47 42 37 33 29 27 25 27 21 22
44 47 53 50 49 41 34 26 18 15 10 3 2 3 3 2 7 10 15 22 38 40 33 36 38 48 64 77 74 75 73 71 65 56 51 45 41 35 29 30 29 26 21 22 26
43 46 51 48 47 42 33 28 17 9 5 6 5 6 9 7 12 17 27 32 33 26 38 40 34 48 59 72 72 71 72 68 60 53 46 41 37 33 30 29 31 30 27 26 25
43 44 49 46 45 41 35 29 23 9 2 6 7 8 7 7 11 29 27 25 21 28 32 31 32 44 56 65 67 69 69 63 55 49 43 38 36 33 31 31 32 30 28 27 25
43 43 47 45 43 39 33 29 27 17 5 5 6 8 5 5 5 7 6 9 17 26 38 34 32 43 53 60 63 65 61 55 49 46 41 38 36 34 33 32 32 29 28 27 25
44 42 45 43 42 41 36 32 27 19 9 5 9 9 7 6 11 10 16 12 18 29 41 35 35 42 50 56 58 58 56 50 44 42 42 38 37 35 34 32 30 29 28 28 28
45 40 42 42 44 42 39 34 26 19 13 11 13 14 14 11 7 11 13 14 26 30 29 34 42 45 49 53 53 52 52 48 45 42 41 38 36 34 33 31 30 29 28 30 31
44 40 41 41 43 41 38 36 24 16 20 18 14 16 14 17 12 11 10 18 16 25 24 33 40 49 51 51 50 51 51 48 42 42 40 38 37 36 33 31 30 29 29 30 30
42 39 38 39 41 41 38 34 29 24 24 25 21 21 15 14 10 13 15 12 13 18 28 31 42 48 50 49 49 49 46 44 40 40 40 37 36 35 32 30 30 29 30 29 30
39 38 35 37 37 40 39 33 32 28 26 28 26 19 16 17 13 21 23 15 23 20 23 30 41 44 45 45 47 45 37 36 38 36 36 35 35 34 32 31 30 30 31 29 29
37 39 33 34 35 36 38 33 29 30 24 24 22 18 16 19 18 34 29 16 17 17 25 37 36 39 42 45 42 39 34 34 33 34 34 35 34 32 31 31 31 31 30 29 29
33 37 32 32 33 34 34 35 28 28 27 27 19 21 24 26 27 28 22 18 19 24 29 33 35 39 43 44 39 36 32 31 31 32 32 33 32 31 31 31 30 30 29 28 28
29 33 33 29 30 33 33 32 32 31 32 29 30 27 26 30 27 25 20 16 23 27 31 32 32 39 40 37 37 31 30 29 29 29 29 30 30 29 30 30 30 29 28 28 28
26 29 33 28 26 29 31 30 30 31 34 30 29 31 32 32 28 20 26 29 31 32 29 30 31 34 34 32 32 27 24 24 24 24 25 25 25 26 27 28 28 28 28 29 28
24 25 28 31 25 25 28 28 27 32 35 31 29 29 32 34 36 36 35 34 32 32 33 32 34 34 32 30 28 25 21 20 19 19 19 19 18 19 20 19 19 20 21 22 23
23 24 24 28 29 22 25 27 25 29 33 30 27 30 31 31 33 35 36 34 34 34 34 35 36 34 31 29 25 22 19 17 15 14 13 13 13 13 12 13 14 15 17 20 23
22 24 25 24 25 27 23 23 24 27 31 32 26 23 22 20 24 28 34 35 36 35 35 35 34 32 29 27 23 19 16 13 11 11 12 10 10 12 12 15 18 20 23 25 29
20 22 24 23 23 24 27 20 21 24 25 27 26 21 18 16 18 14 26 30 31 32 32 32 33 32 30 26 20 17 14 13 11 9 11 10 10 12 17 21 24 28 31 34 36
17 20 20 21 24 23 24 21 22 20 20 19 20 20 17 14 14 14 16 15 21 24 26 28 31 30 28 23 19 13 13 13 12 12 14 14 16 21 25 29 32 34 36 39 42
14 17 20 20 23 25 23 20 21 22 19 16 15 15 16 14 13 11 7 9 7 10 11 16 21 24 26 25 24 20 18 16 17 19 22 24 28 29 31 31 34 37 40 41 43
11 10 13 15 18 19 20 20 23 21 18 17 17 14 12 11 9 10 11 7 7 2 1 6 13 15 18 21 20 21 24 25 27 27 28 29 29 26 30 34 37 40 41 43 44
8 8 9 11 11 11 12 15 17 18 18 18 16 14 13 13 11 8 5 5 6 5 4 6 8 11 15 16 19 21 23 25 26 27 26 31 28 30 31 36 39 41 43 44 44
10 8 8 9 8 10 10 13 14 14 14 15 15 16 14 13 11 9 7 5 3 2 4 7 9 11 13 15 18 22 24 26 28 28 31 28 31 32 35 37 39 38 36 36 38
13 11 12 9 7 9 11 11 13 14 13 11 10 10 11 9 9 9 9 9 8 7 6 7 10 11 12 14 17 20 22 25 25 27 30 23 28 26 35 39 38 37 39 40 40
18 14 15 13 12 9 8 9 7 8 11 13 14 14 11 7 6 5 4 2 5 9 11 14 15 16 19 22 23 21 23 27 27 28 31 34 29 37 36 39 40 42 42 43 44
20 21 21 20 17 14 15 12 11 11 12 12 13 14 14 14 12 10 11 10 9 9 10 11 15 19 19 26 29 27 27 30 31 32 35 36 36 36 38 41 43 46 47 48 49
Wind_Direction
357 356 352 346 345 346 339 335 335 329 316 304 271 239 236 241 235 228 225 232 198 204 196 204 204 201 204 204 206 208 211 214 215 218 219 219 223 225 230 236 236 236 239 238 238
359 357 354 349 349 353 351 348 345 347 342 329 271 285 264 259 233 229 216 205 187 187 162 201 204 199 202 202 204 208 210 214 215 215 218 220 223 227 231 234 230 232 235 218 231
0 359 355 353 353 356 356 357 2 354 355 9 103 24 46 245 200 187 186 179 175 177 168 185 197 193 196 200 201 206 210 212 215 215 217 217 221 222 222 223 222 223 220 220 225
2 2 359 356 359 0 2 3 354 358 56 61 55 51 63 116 177 170 167 157 163 180 178 190 187 187 190 197 199 204 209 212 214 214 214 212 214 210 211 217 220 219 218 217 219
4 5 3 1 3 7 12 3 0 351 109 81 62 58 46 87 149 165 176 160 165 171 188 187 180 180 182 194 196 201 207 211 212 212 210 206 209 205 209 216 219 222 218 213 218
6 6 6 5 5 7 13 11 0 7 124 97 67 43 48 86 154 140 178 177 161 170 178 180 179 179 179 189 195 200 204 208 209 208 207 204 204 205 208 215 219 222 219 215 213
8 9 9 8 11 13 14 12 19 45 110 80 54 49 81 101 103 118 149 158 148 135 174 173 173 176 176 183 190 196 200 203 204 204 205 203 204 204 209 215 219 220 218 216 212
10 11 13 10 12 21 23 23 39 59 69 70 72 80 81 82 92 77 129 143 128 138 151 176 166 172 177 179 185 191 196 201 199 199 201 203 205 205 211 217 221 219 216 212 213
13 13 16 14 15 26 31 30 51 71 56 56 84 84 82 97 106 85 110 147 153 143 159 168 171 169 174 176 180 188 196 198 198 197 199 201 205 207 211 219 220 216 215 211 216
16 17 19 18 18 23 33 40 50 54 53 53 81 90 91 83 110 85 142 115 148 161 164 167 169 168 172 173 179 184 192 195 195 196 198 200 207 210 214 219 218 217 212 212 218
19 19 21 23 22 26 31 40 44 48 63 63 91 97 67 90 95 101 120 138 136 159 162 164 164 168 166 171 174 178 179 187 192 192 198 203 211 213 215 216 217 216 213 217 223
20 20 23 28 28 31 34 41 53 59 55 48 61 72 78 101 86 111 88 134 141 152 168 158 161 162 163 161 157 164 170 180 189 193 199 206 213 215 216 215 216 217 217 222 229
20 23 24 31 35 37 41 43 50 57 57 58 61 74 87 97 107 120 115 98 123 136 140 148 156 158 157 150 151 158 167 179 189 194 203 209 214 214 216 216 216 220 223 229 236
23 24 28 32 39 40 46 51 54 60 61 72 71 78 85 95 109 118 94 126 136 135 136 142 152 154 150 144 147 154 167 177 187 197 207 211 213 215 218 219 221 226 230 236 243
26 24 29 32 39 44 47 52 59 63 71 77 76 79 87 98 103 106 108 116 121 123 131 134 145 139 137 139 137 147 163 175 188 197 206 212 214 216 221 226 230 235 242 250 257
30 31 29 34 36 47 51 53 64 69 74 78 82 89 93 94 102 102 106 109 115 120 124 132 131 126 131 131 135 144 156 169 183 193 205 213 217 222 228 233 240 247 254 261 267
29 38 34 37 39 43 52 55 64 75 85 84 88 97 104 109 110 110 109 110 118 122 126 130 126 125 125 127 132 142 154 162 168 187 197 210 221 227 229 233 236 239 247 255 261
28 42 40 40 39 49 54 54 65 80 90 96 89 89 89 100 111 118 121 117 118 123 127 127 125 122 123 123 127 137 151 164 169 188 195 202 220 223 221 228 235 243 250 256 259
28 36 44 42 42 45 53 54 66 77 92 97 97 86 81 88 104 113 138 136 134 134 135 133 130 126 126 122 131 138 153 160 168 179 191 213 226 227 237 241 246 250 254 259 263
25 31 34 40 47 45 51 52 63 72 81 89 101 108 94 98 92 118 132 138 151 155 152 151 149 142 139 136 142 158 161 187 198 210 214 226 237 243 246 248 252 257 262 265 268
20 28 28 36 45 49 47 44 58 69 75 81 89 100 107 106 107 112 122 137 128 162 156 158 166 162 163 171 173 182 193 208 223 233 235 237 243 247 254 262 265 265 267 271 276
2 14 15 24 41 51 58 59 59 56 61 73 82 92 99 102 107 116 119 130 178 62 141 161 185 193 196 200 209 218 226 229 239 244 249 256 251 273 271 270 272 274 276 277 278
316 350 10 9 22 31 49 65 72 72 70 63 63 71 78 85 94 103 100 131 160 182 197 234 236 231 228 231 233 241 246 251 256 260 268 271 279 274 276 275 274 275 276 282 286
267 291 313 327 2 19 21 30 42 54 64 69 67 61 54 52 52 55 67 85 100 172 209 228 245 247 252 257 260 258 257 259 262 266 267 273 274 283 277 277 277 281 286 286 286
269 272 281 290 309 342 355 360 8 13 17 34 48 62 69 78 60 40 18 5 3 348 322 294 279 267 256 256 257 257 260 263 267 269 271 265 268 272 268 277 288 287 287 292 294
265 264 274 276 286 292 304 321 333 345 347 347 353 360 8 15 14 14 26 13 327 321 319 312 305 295 297 292 283 274 278 278 280 279 281 281 288 281 286 290 293 291 288 288 288
262 268 270 271 271 274 280 284 298 315 320 319 321 321 327 326 326 319 316 310 300 291 285 286 291 293 291 284 281 281 280 282 280 280 279 278 278 275 277 276 276 278 281 282 283